Date String (YYYY-MM-DD hh:mm:ss) UTC,Instrument flags,Ambient pressure (hPa),Sample flow (lpm),Bypass flow (lpm),Sample temperature (°C),Ambient temperature (°C),ASC tube jacket temperature (°C),LED temperature (°C),Box temperature (°C),Sample RH (%),Span deviation,Mass concentration (μg/m³),Mass concentration (μg/m³),Mass concentration (μg/m³)
DateTimeUTC,F1_M11,P_M11,Q1_M11,Q2_M11,T1_M11,T2_M11,T3_M11,T4_M11,T5_M11,U1_M11,ZSPAN_M11,X0_M11,X2_M11,X1_M11
2021-10-27 12:00:00,,0821.6,5.00,0.00,23.6,22.5,00.0,32.7,25.2,09.8,0000.0,0001.38,0000.78,0000.60
2021-10-27 12:01:00,,0821.6,5.01,0.00,23.5,22.5,00.0,32.7,25.2,09.7,0000.0,0001.83,0000.79,0000.60
2021-10-27 12:02:00,,0821.7,4.99,0.00,23.5,22.5,00.0,32.7,25.2,09.7,0000.0,0002.69,0000.77,0000.60
2021-10-27 12:03:00,,0821.7,5.00,0.00,23.5,22.5,00.0,32.7,25.2,09.7,0000.0,0002.47,0000.72,0000.58
2021-10-27 12:04:00,,0821.7,5.00,0.00,23.5,22.5,00.0,32.7,25.2,09.8,0000.0,0002.45,0000.71,0000.58
2021-10-27 12:05:00,,0821.7,4.99,0.00,23.5,22.5,00.0,32.7,25.2,09.8,0000.0,0002.41,0000.68,0000.57
2021-10-27 12:06:00,,0821.8,5.01,0.00,23.5,22.5,00.0,32.7,25.2,09.8,0000.0,0003.12,0000.69,0000.57
2021-10-27 12:07:00,,0821.7,5.00,0.00,23.5,22.4,00.0,32.7,25.2,09.8,0000.0,0003.99,0000.69,0000.56
2021-10-27 12:08:00,,0821.7,4.99,0.00,23.5,22.4,00.0,32.7,25.2,09.9,0000.0,0003.99,0000.70,0000.56
2021-10-27 12:09:00,,0821.7,4.99,0.00,23.5,22.4,00.0,32.7,25.2,10.0,0000.0,0004.02,0000.71,0000.57
2021-10-27 12:10:00,,0821.7,5.01,0.00,23.5,22.4,00.0,32.7,25.2,09.9,0000.0,0004.60,0000.71,0000.57
2021-10-27 12:11:00,,0821.8,5.00,0.00,23.5,22.4,00.0,32.7,25.2,09.9,0000.0,0004.76,0000.71,0000.56
2021-10-27 12:12:00,,0821.8,5.00,0.00,23.5,22.5,00.0,32.7,25.2,09.9,0000.0,0004.19,0000.70,0000.55
2021-10-27 12:13:00,,0821.7,5.00,0.00,23.5,22.5,00.0,32.7,25.2,09.8,0000.0,0003.83,0000.70,0000.55
2021-10-27 12:14:00,,0821.8,5.00,0.00,23.5,22.5,00.0,32.7,25.3,09.9,0000.0,0004.83,0000.71,0000.55
2021-10-27 12:15:00,,0821.8,5.01,0.00,23.5,22.6,00.0,32.7,25.3,09.8,0000.0,0004.85,0000.71,0000.54
2021-10-27 12:16:00,,0821.8,5.00,0.00,23.5,22.6,00.0,32.7,25.3,09.8,0000.0,0004.89,0000.71,0000.54
2021-10-27 12:17:00,,0821.8,4.99,0.00,23.6,22.6,00.0,32.7,25.4,09.9,0000.0,0004.50,0000.71,0000.54
2021-10-27 12:18:00,,0821.8,5.00,0.00,23.6,22.7,00.0,32.7,25.4,10.1,0000.0,0003.38,0000.73,0000.54
2021-10-27 12:19:00,,0821.8,5.01,0.00,23.6,22.7,00.0,32.7,25.4,10.3,0000.0,0003.62,0000.74,0000.54
2021-10-27 12:20:00,,0821.8,4.99,0.00,23.6,22.7,00.0,32.7,25.4,10.3,0000.0,0003.71,0000.73,0000.55
2021-10-27 12:21:00,,0821.8,5.00,0.00,23.6,22.8,00.0,32.7,25.5,10.4,0000.0,0004.13,0000.72,0000.55
2021-10-27 12:22:00,,0821.8,5.00,0.00,23.6,22.8,00.0,32.7,25.5,10.3,0000.0,0003.71,0000.72,0000.57
2021-10-27 12:23:00,,0821.8,4.99,0.00,23.6,22.8,00.0,32.7,25.5,10.3,0000.0,0003.68,0000.73,0000.57
2021-10-27 12:24:00,,0821.8,5.02,0.00,23.6,22.8,00.0,32.7,25.5,10.2,0000.0,0004.33,0000.74,0000.58
2021-10-27 12:25:00,,0821.8,4.99,0.00,23.6,22.8,00.0,32.7,25.5,10.1,0000.0,0003.94,0000.75,0000.59
2021-10-27 12:26:00,,0821.8,5.01,0.00,23.6,22.8,00.0,32.7,25.5,10.3,0000.0,0003.69,0000.77,0000.60
2021-10-27 12:27:00,,0821.8,5.00,0.00,23.7,22.8,00.0,32.7,25.5,10.7,0000.0,0003.72,0000.79,0000.62
2021-10-27 12:28:00,,0821.7,5.00,0.00,23.7,22.8,00.0,32.7,25.5,10.7,0000.0,0004.65,0000.83,0000.63
2021-10-27 12:29:00,,0821.8,4.99,0.00,23.7,22.8,00.0,32.7,25.5,10.5,0000.0,0005.34,0000.82,0000.64
2021-10-27 12:30:00,,0821.8,5.01,0.00,23.7,22.8,00.0,32.7,25.5,10.7,0000.0,0005.08,0000.80,0000.65
2021-10-27 12:31:00,,0821.8,5.00,0.00,23.7,22.8,00.0,32.7,25.5,10.9,0000.0,0005.14,0000.84,0000.66
2021-10-27 12:32:00,,0822.0,5.00,0.00,23.7,22.8,00.0,32.7,25.5,10.9,0000.0,0004.28,0000.85,0000.68
2021-10-27 12:33:00,,0822.0,4.99,0.00,23.7,22.8,00.0,32.7,25.5,10.9,0000.0,0004.29,0000.86,0000.68
2021-10-27 12:34:00,,0821.9,5.00,0.00,23.7,22.8,00.0,32.8,25.5,10.7,0000.0,0004.39,0000.86,0000.70
2021-10-27 12:35:00,,0821.9,4.99,0.00,23.7,22.8,00.0,32.8,25.5,10.7,0000.0,0004.06,0000.86,0000.71
2021-10-27 12:36:00,,0821.9,5.01,0.00,23.7,22.8,00.0,32.8,25.5,10.8,0000.0,0003.26,0000.85,0000.70
2021-10-27 12:37:00,,0822.0,5.00,0.00,23.7,22.8,00.0,32.8,25.5,10.8,0000.0,0003.26,0000.86,0000.70
2021-10-27 12:38:00,,0822.0,4.99,0.00,23.7,22.8,00.0,32.8,25.5,10.6,0000.0,0003.28,0000.87,0000.71
2021-10-27 12:39:00,,0822.0,5.01,0.00,23.7,22.8,00.0,32.8,25.5,10.4,0000.0,0002.50,0000.85,0000.71
2021-10-27 12:40:00,,0822.1,4.99,0.00,23.7,22.8,00.0,32.8,25.5,10.3,0000.0,0001.69,0000.87,0000.71
2021-10-27 12:41:00,,0821.8,5.01,0.00,23.7,22.8,00.0,32.8,25.5,10.3,0000.0,0001.77,0000.91,0000.71
2021-10-27 12:42:00,,0821.9,4.99,0.00,23.7,22.8,00.0,32.8,25.5,10.3,0000.0,0001.71,0000.88,0000.70
2021-10-27 12:43:00,,0822.0,5.00,0.00,23.7,22.8,00.0,32.8,25.5,10.1,0000.0,0001.65,0000.86,0000.69
2021-10-27 12:44:00,,0822.0,5.00,0.00,23.6,22.8,00.0,32.8,25.5,10.0,0000.0,0001.60,0000.83,0000.67
2021-10-27 12:45:00,,0822.0,5.01,0.00,23.6,22.7,00.0,32.8,25.4,09.9,0000.0,0001.49,0000.82,0000.66
2021-10-27 12:46:00,,0822.1,4.99,0.00,23.6,22.7,00.0,32.8,25.4,09.9,0000.0,0001.29,0000.83,0000.65
2021-10-27 12:47:00,,0822.1,5.01,0.00,23.6,22.7,00.0,32.8,25.4,09.9,0000.0,0001.27,0000.81,0000.63
2021-10-27 12:48:00,,0822.1,4.99,0.00,23.6,22.7,00.0,32.7,25.4,09.9,0000.0,0001.30,0000.81,0000.61
2021-10-27 12:49:00,,0822.1,4.99,0.00,23.6,22.7,00.0,32.7,25.4,10.2,0000.0,0001.25,0000.78,0000.60
2021-10-27 12:50:00,,0822.1,5.00,0.00,23.6,22.8,00.0,32.7,25.4,10.3,0000.0,0001.43,0000.79,0000.58
2021-10-27 12:51:00,,0822.1,5.00,0.00,23.6,22.8,00.0,32.7,25.5,10.3,0000.0,0001.43,0000.79,0000.57
2021-10-27 12:52:00,,0822.1,5.00,0.00,23.6,22.8,00.0,32.7,25.5,10.3,0000.0,0001.35,0000.75,0000.56
2021-10-27 12:53:00,,0822.1,4.99,0.00,23.6,22.8,00.0,32.7,25.5,10.2,0000.0,0001.39,0000.74,0000.55
2021-10-27 12:54:00,,0822.1,5.01,0.00,23.7,22.8,00.0,32.7,25.5,10.1,0000.0,0001.45,0000.75,0000.54
2021-10-27 12:55:00,,0822.1,4.99,0.00,23.7,22.8,00.0,32.7,25.5,10.0,0000.0,0001.49,0000.76,0000.54
2021-10-27 12:56:00,,0822.1,5.00,0.00,23.7,22.9,00.0,32.7,25.5,10.0,0000.0,0002.04,0000.76,0000.54
2021-10-27 12:57:00,,0822.1,5.01,0.00,23.7,22.9,00.0,32.7,25.5,10.0,0000.0,0003.29,0000.75,0000.53
2021-10-27 12:58:00,,0822.1,4.99,0.00,23.7,22.9,00.0,32.8,25.5,09.8,0000.0,0003.26,0000.73,0000.53
2021-10-27 12:59:00,,0822.1,5.00,0.00,23.7,22.9,00.0,32.8,25.5,09.8,0000.0,0003.19,0000.72,0000.53
